Weather History for KRHP - May, 2013

Change the Weather History Date:

Tuesday, May 14, 2013

  Actual Average (KTYS) Record (KTYS)
Temperature  
Mean Temperature 56 °F 67 °F  
Max Temperature 77 °F 78 °F 91 °F (1916)
Min Temperature 34 °F 56 °F 39 °F (1917)
Degree Days  
Heating Degree Days 10 2  
Month to date heating degree days 39  
Since 1 July heating degree days 3614  
Cooling Degree Days 0 4  
Month to date cooling degree days 36  
Year to date cooling degree days 73  
Growing Degree Days 6 (Base 50)    
Moisture  
Dew Point 43 °F    
Average Humidity 68    
Maximum Humidity 97    
Minimum Humidity 36    
Precipitation  
Precipitation 0.00 in 0.16 in 1.63 in (2012)
Month to date precipitation 2.12  
Year to date precipitation 19.05  
Snow  
Snow 0.00 in 0.00 in - ()
Month to date snowfall 0.0  
Since 1 July snowfall 6.5  
Snow Depth -    
Sea Level Pressure  
Sea Level Pressure 30.20 in    
Wind  
Wind Speed 2 mph (WSW)    
Max Wind Speed 14 mph    
Max Gust Speed 18 mph    
Visibility 10 miles    
Events      
T = Trace of Precipitation, MM = Missing Value Source: NWS Daily Summary

Daily Weather History Graph

Daily Weather History Graph

Search for Another Location

Airport or City:

Trip Planner

Search our weather history database for the weather conditions in past years. The results will help you decide how hot, cold, wet, or windy it might be!

Date:

Astronomy

May. 14, 2013 Rise Set
Actual Time 6:32 AM EDT 8:32 PM EDT
Civil Twilight 6:03 AM EDT 9:00 PM EDT
Nautical Twilight 5:29 AM EDT 9:34 PM EDT
Astronomical Twilight 4:53 AM EDT 10:11 PM EDT
Moon 10:10 AM EDT (5/14) No Moon Set
Length of Visible Light 14h 56m
Length of Day
13h 59m
Waxing Crescent, 19% of the Moon is Illuminated
May 14
Waxing Crescent
May 18
First Quarter
May 25
Full
May 31
Last Quarter
Jun 8
New

Hourly Weather History & Observations

Time (EDT) Temp. Dew Point Humidity Pressure Visibility Wind Dir Wind Speed Gust Speed Precip Events Conditions
12:15 AM 40.5 °F 35.6 °F 83% 30.22 in 10.0 mi Calm Calm - N/A   Clear
12:35 AM 39.7 °F 35.6 °F 85% 30.22 in 10.0 mi Calm Calm - N/A   Clear
12:55 AM 38.5 °F 35.2 °F 88% 30.23 in 10.0 mi Calm Calm - N/A   Clear
1:15 AM 39.2 °F 36.1 °F 89% 30.23 in 10.0 mi Calm Calm - N/A   Clear
1:35 AM 38.7 °F 34.9 °F 86% 30.24 in 10.0 mi Calm Calm - N/A   Clear
1:55 AM 37.4 °F 35.2 °F 92% 30.23 in 10.0 mi Calm Calm - N/A   Clear
2:15 AM 36.9 °F 34.5 °F 91% 30.23 in 10.0 mi Calm Calm - N/A   Clear
2:35 AM 37.2 °F 35.1 °F 92% 30.23 in 10.0 mi Calm Calm - N/A   Clear
2:55 AM 36.7 °F 34.7 °F 93% 30.23 in 10.0 mi Calm Calm - N/A   Clear
3:15 AM 35.8 °F 34.2 °F 94% 30.23 in 10.0 mi Calm Calm - N/A   Clear
3:35 AM 35.6 °F 34.0 °F 94% 30.23 in 10.0 mi Calm Calm - N/A   Clear
3:55 AM 34.7 °F 33.4 °F 95% 30.23 in 10.0 mi Calm Calm - N/A   Clear
4:15 AM 34.9 °F 33.8 °F 96% 30.23 in 10.0 mi Calm Calm - N/A   Clear
4:35 AM 35.6 °F 34.2 °F 94% 30.23 in 10.0 mi Calm Calm - N/A   Clear
4:55 AM 34.7 °F 33.4 °F 95% 30.24 in 10.0 mi Calm Calm - N/A   Clear
5:15 AM 34.7 °F 33.6 °F 96% 30.24 in 10.0 mi Calm Calm - N/A   Clear
5:35 AM 34.0 °F 32.9 °F 96% 30.24 in 10.0 mi Calm Calm - N/A   Clear
5:55 AM 34.0 °F 33.1 °F 96% 30.24 in 10.0 mi Calm Calm - N/A   Clear
6:15 AM 34.0 °F 33.1 °F 96% 30.24 in 10.0 mi Calm Calm - N/A   Clear
6:35 AM 34.0 °F 32.9 °F 96% 30.25 in 10.0 mi Calm Calm - N/A   Clear
6:55 AM 34.5 °F 33.3 °F 95% 30.26 in 10.0 mi Calm Calm - N/A   Clear
7:15 AM 35.4 °F 34.5 °F 97% 30.27 in 10.0 mi Calm Calm - N/A   Clear
7:35 AM 36.3 °F 35.2 °F 96% 30.26 in 10.0 mi Calm Calm - N/A   Clear
7:55 AM 38.5 °F 35.6 °F 89% 30.27 in 10.0 mi Calm Calm - N/A   Clear
8:15 AM 40.8 °F 37.6 °F 88% 30.26 in 10.0 mi Calm Calm - N/A   Clear
8:35 AM 42.6 °F 38.3 °F 85% 30.27 in 10.0 mi Calm Calm - N/A   Clear
8:55 AM 45.1 °F 39.4 °F 80% 30.26 in 10.0 mi Calm Calm - N/A   Clear
9:15 AM 47.7 °F 39.9 °F 75% 30.26 in 10.0 mi WSW 4.6 mph - N/A   Clear
9:35 AM 50.5 °F 38.8 °F 64% 30.26 in 10.0 mi WSW 4.6 mph - N/A   Clear
9:55 AM - - N/A% - - North - - N/A   Unknown
10:15 AM - - N/A% - - North - - N/A   Unknown
10:35 AM - - N/A% - - North - - N/A   Unknown
11:15 AM - - N/A% 30.25 in - WNW 6.9 mph - N/A   Unknown
11:35 AM 63.7 °F 40.1 °F 42% 30.25 in 10.0 mi West 9.2 mph - N/A   Clear
11:55 AM 65.3 °F 42.4 °F 43% 30.25 in 10.0 mi West 9.2 mph - N/A   Clear
12:15 PM 66.9 °F 42.4 °F 41% 30.25 in 10.0 mi SW 5.8 mph - N/A   Clear
12:35 PM 66.6 °F 41.9 °F 41% 30.24 in 10.0 mi West 4.6 mph - N/A   Clear
12:55 PM 67.6 °F 42.8 °F 41% 30.23 in 1.5 mi WSW 4.6 mph - N/A   Haze
1:15 PM 70.2 °F 45.9 °F 42% 30.22 in 10.0 mi WSW 5.8 mph - N/A   Clear
1:35 PM 71.8 °F 46.9 °F 41% 30.21 in 10.0 mi WSW 9.2 mph - N/A   Clear
1:55 PM 72.3 °F 47.3 °F 41% 30.20 in 10.0 mi SW 11.5 mph 18.4 mph N/A   Clear
2:15 PM 73.0 °F 47.8 °F 41% 30.19 in 10.0 mi SW 13.8 mph 18.4 mph N/A   Clear
2:35 PM 74.1 °F 48.7 °F 41% 30.18 in 10.0 mi WSW 10.4 mph 18.4 mph N/A   Clear
2:55 PM 74.8 °F 48.9 °F 40% 30.17 in 10.0 mi SW 10.4 mph 17.3 mph N/A   Clear
3:15 PM 75.4 °F 49.6 °F 40% 30.16 in 10.0 mi WSW 11.5 mph 17.3 mph N/A   Clear
3:35 PM 75.7 °F 49.8 °F 40% 30.15 in 10.0 mi West 9.2 mph - N/A   Scattered Clouds
3:55 PM 75.2 °F 49.5 °F 40% 30.15 in 10.0 mi WSW 5.8 mph - N/A   Clear
4:15 PM 76.3 °F 49.3 °F 39% 30.14 in 10.0 mi SW 8.1 mph 17.3 mph N/A   Clear
4:35 PM 76.3 °F 49.3 °F 39% 30.14 in 10.0 mi SW 10.4 mph - N/A   Clear
4:55 PM 77.5 °F 48.7 °F 36% 30.13 in 10.0 mi West 10.4 mph 17.3 mph N/A   Clear
5:15 PM 76.8 °F 49.3 °F 38% 30.12 in 10.0 mi SW 9.2 mph - N/A   Clear
5:35 PM 76.8 °F 49.6 °F 38% 30.12 in 10.0 mi SW 10.4 mph - N/A   Clear
5:55 PM 77.0 °F 50.4 °F 39% 30.12 in 10.0 mi SW 8.1 mph - N/A   Clear
6:15 PM 76.3 °F 49.8 °F 39% 30.12 in 10.0 mi West 8.1 mph 17.3 mph N/A   Clear
6:35 PM 76.1 °F 50.2 °F 40% 30.11 in 7.0 mi SW 9.2 mph - N/A   Clear
6:55 PM 74.7 °F 52.0 °F 45% 30.11 in 7.0 mi WSW 11.5 mph - N/A   Scattered Clouds
7:15 PM 73.8 °F 51.3 °F 45% 30.11 in 10.0 mi SW 9.2 mph - N/A   Clear
7:35 PM 72.5 °F 51.6 °F 48% 30.11 in 10.0 mi SW 9.2 mph 17.3 mph N/A   Clear
7:55 PM 71.1 °F 51.8 °F 50% 30.12 in 10.0 mi WSW 8.1 mph - N/A   Clear
8:15 PM 69.8 °F 51.4 °F 52% 30.12 in 10.0 mi WSW 6.9 mph - N/A   Clear
8:35 PM 67.8 °F 51.8 °F 56% 30.13 in 10.0 mi WSW 4.6 mph - N/A   Clear
8:55 PM 63.3 °F 52.0 °F 66% 30.14 in 10.0 mi Calm Calm - N/A   Clear
9:15 PM 62.4 °F 52.0 °F 69% 30.15 in 10.0 mi Calm Calm - N/A   Clear
9:35 PM 60.4 °F 51.8 °F 73% 30.15 in 10.0 mi NNE 3.5 mph - N/A   Clear
9:55 PM 58.1 °F 52.0 °F 80% 30.15 in 10.0 mi Calm Calm - N/A   Clear
10:15 PM 58.3 °F 51.8 °F 79% 30.16 in 10.0 mi Calm Calm - N/A   Clear
10:35 PM 58.5 °F 51.6 °F 78% 30.16 in 10.0 mi Calm Calm - N/A   Clear
10:55 PM 56.3 °F 51.6 °F 84% 30.16 in 10.0 mi Calm Calm - N/A   Clear
11:15 PM 55.9 °F 51.3 °F 84% 30.16 in 10.0 mi Calm Calm - N/A   Clear
11:35 PM 55.2 °F 51.8 °F 88% 30.16 in 10.0 mi Calm Calm - N/A   Clear
11:55 PM 54.0 °F 51.1 °F 90% 30.16 in 10.0 mi Calm Calm - N/A   Clear